| time (UTC) | temp F | wind direction | speed knots | gust knots | rain 1hr in | rain 24hr in | rain mn in | humidity % | barometer mb |
| 20260902113052 | 51 | 162 | 0.9 | 0.0 | 0.00 | 0.00 | 0.00 | 23 | 1005.7 |
| 20260902111539 | 51 | 181 | 0.9 | 0.0 | 0.00 | 0.00 | 0.00 | 21 | 1005.9 |
| 20260902110038 | 51 | 202 | 0.0 | 0.0 | 0.00 | 0.00 | 0.00 | 20 | 1006.1 |
| 20260902104557 | 51 | 175 | 0.0 | 0.0 | 0.00 | 0.00 | 0.00 | 19 | 1006.2 |
| 20260902103037 | 51 | 171 | 0.0 | 0.0 | 0.00 | 0.00 | 0.00 | 17 | 1006.2 |
| 20260902101540 | 51 | 150 | 0.0 | 0.0 | 0.00 | 0.00 | 0.00 | 18 | 1006.2 |
| 20260902100034 | 51 | 202 | 0.0 | 0.0 | 0.00 | 0.00 | 0.00 | 18 | 1006.2 |
| 20260902094535 | 51 | 141 | 0.0 | 0.0 | 0.00 | 0.00 | 0.00 | 18 | 1006.1 |
| 20260902093038 | 52 | 127 | 0.0 | 0.0 | 0.00 | 0.00 | 0.00 | 18 | 1006.2 |
| 20260902091537 | 52 | 137 | 0.0 | 0.0 | 0.00 | 0.00 | 0.00 | 18 | 1006.3 |
| 20260902090032 | 52 | 131 | 0.0 | 0.0 | 0.00 | 0.00 | 0.00 | 20 | 1006.1 |
| 20260902084530 | 52 | 140 | 0.0 | 0.0 | 0.00 | 0.00 | 0.00 | 21 | 1006.3 |
| 20260902083040 | 52 | 198 | 0.0 | 0.0 | 0.00 | 0.00 | 0.00 | 22 | 1006.3 |
| 20260902081530 | 52 | 196 | 0.0 | 0.0 | 0.00 | 0.00 | 0.00 | 22 | 1006.3 |
| 20260902080026 | 52 | 176 | 0.0 | 0.0 | 0.00 | 0.00 | 0.00 | 24 | 1006.1 |
| 20260902074525 | 52 | 133 | 0.0 | 0.0 | 0.00 | 0.00 | 0.00 | 24 | 1006.1 |
| 20260902073028 | 52 | 152 | 0.0 | 0.0 | 0.00 | 0.00 | 0.00 | 24 | 1006.0 |
| 20260902071524 | 52 | 174 | 0.0 | 0.0 | 0.00 | 0.00 | 0.00 | 25 | 1006.0 |
| 20260902070022 | 52 | 143 | 0.0 | 0.0 | 0.00 | 0.00 | 0.00 | 27 | 1006.5 |
| 20260902064522 | 52 | 157 | 0.0 | 0.0 | 0.00 | 0.00 | 0.00 | 29 | 1006.6 |
| 20260902063022 | 52 | 140 | 0.0 | 0.0 | 0.00 | 0.00 | 0.00 | 34 | 1006.7 |
| 20260902061535 | 53 | 140 | 0.0 | 0.0 | 0.00 | 0.00 | 0.00 | 36 | 1006.8 |
| 20260902060020 | 53 | 130 | 0.0 | 0.0 | 0.00 | 0.00 | 0.00 | 36 | 1007.3 |
| 20260902054526 | 53 | 130 | 0.0 | 0.0 | 0.00 | 0.00 | 0.00 | 37 | 1006.9 |
| 20260902053019 | 53 | 128 | 0.0 | 0.0 | 0.00 | 0.00 | 0.00 | 36 | 1007.0 |
| 20260902051518 | 53 | 128 | 0.0 | 0.0 | 0.00 | 0.00 | 0.00 | 36 | 1007.1 |
| 20260902050018 | 53 | 126 | 0.0 | 0.0 | 0.00 | 0.00 | 0.00 | 36 | 1007.5 |
| 20260902044525 | 53 | 130 | 0.0 | 0.0 | 0.00 | 0.00 | 0.00 | 37 | 1007.4 |
| 20260902043018 | 53 | 130 | 0.0 | 0.0 | 0.00 | 0.00 | 0.00 | 38 | 1007.3 |
| 20260902041517 | 54 | 126 | 0.0 | 0.0 | 0.00 | 0.00 | 0.00 | 46 | 1007.0 |
| 20260902040016 | 54 | 150 | 0.0 | 0.0 | 0.00 | 0.00 | 0.00 | 48 | 1007.0 |
| 20260902034515 | 54 | 182 | 0.0 | 0.0 | 0.00 | 0.00 | 0.00 | 48 | 1007.0 |
| 20260902033014 | 54 | 191 | 0.9 | 0.0 | 0.00 | 0.00 | 0.00 | 47 | 1006.7 |
| 20260902031525 | 54 | 160 | 0.0 | 0.0 | 0.00 | 0.00 | 0.00 | 47 | 1006.1 |
| 20260902030013 | 54 | 130 | 0.9 | 0.0 | 0.00 | 0.00 | 0.00 | 45 | 1006.5 |
| 20260902024514 | 55 | 191 | 0.9 | 0.0 | 0.00 | 0.00 | 0.00 | 44 | 1006.6 |
| 20260902023026 | 55 | 158 | 0.9 | 0.0 | 0.00 | 0.00 | 0.00 | 39 | 1006.6 |
| 20260902021510 | 55 | 161 | 0.9 | 0.0 | 0.00 | 0.00 | 0.00 | 38 | 1006.2 |
| 20260902020018 | 56 | 158 | 0.0 | 0.0 | 0.00 | 0.00 | 0.00 | 36 | 1006.8 |
| 20260902014518 | 56 | 195 | 0.9 | 0.0 | 0.00 | 0.00 | 0.00 | 34 | 1006.5 |
| 20260902013008 | 57 | 140 | 0.9 | 0.0 | 0.00 | 0.00 | 0.00 | 35 | 1006.4 |
| 20260902011507 | 58 | 219 | 1.7 | 0.0 | 0.00 | 0.00 | 0.00 | 35 | 1006.1 |
| 20260902010010 | 59 | 126 | 1.7 | 0.0 | 0.00 | 0.00 | 0.00 | 35 | 1006.0 |
| 20260902004507 | 61 | 124 | 3.5 | 0.0 | 0.00 | 0.00 | 0.00 | 35 | 1005.6 |
| 20260902003006 | 62 | 167 | 1.7 | 0.0 | 0.00 | 0.00 | 0.00 | 34 | 1005.7 |
| 20260902001506 | 63 | 121 | 1.7 | 0.0 | 0.00 | 0.00 | 0.00 | 28 | 1005.3 |
| 20260902000004 | 63 | 264 | 1.7 | 0.0 | 0.00 | 0.00 | 0.00 | 26 | 1005.4 |
| 20260901234503 | 63 | 253 | 2.6 | 0.0 | 0.00 | 0.00 | 0.00 | 25 | 1005.9 |
| 20260901233002 | 63 | 150 | 2.6 | 0.0 | 0.00 | 0.00 | 0.00 | 22 | 1005.4 |
| 20260901231503 | 64 | 186 | 2.6 | 0.0 | 0.00 | 0.00 | 0.00 | 22 | 1005.4 |
| 20260901230002 | 64 | 206 | 3.5 | 0.0 | 0.00 | 0.00 | 0.00 | 22 | 1005.5 |
| 20260901224601 | 65 | 210 | 1.7 | 0.0 | 0.00 | 0.00 | 0.00 | 20 | 1005.4 |
| 20260901223057 | 63 | 185 | 2.6 | 0.0 | 0.00 | 0.00 | 0.00 | 20 | 1005.8 |
| 20260901221624 | 63 | 212 | 5.2 | 0.0 | 0.00 | 0.00 | 0.00 | 20 | 1006.3 |
| 20260901220115 | 64 | 219 | 4.3 | 0.0 | 0.00 | 0.00 | 0.00 | 19 | 1005.9 |
| 20260901214554 | 64 | 23 | 2.6 | 0.0 | 0.00 | 0.00 | 0.00 | 19 | 1005.6 |
| 20260901213104 | 64 | 191 | 3.5 | 0.0 | 0.00 | 0.00 | 0.00 | 17 | 1005.8 |
| 20260901211545 | 64 | 124 | 3.5 | 0.0 | 0.00 | 0.00 | 0.00 | 16 | 1006.3 |
| 20260901210040 | 64 | 112 | 2.6 | 0.0 | 0.00 | 0.00 | 0.00 | 16 | 1006.2 |
| 20260901204536 | 63 | 162 | 3.5 | 0.0 | 0.00 | 0.00 | 0.00 | 17 | 1006.2 |
| 20260901203033 | 63 | 130 | 3.5 | 0.0 | 0.00 | 0.00 | 0.00 | 17 | 1006.3 |
| 20260901201533 | 63 | 160 | 4.3 | 0.0 | 0.00 | 0.00 | 0.00 | 17 | 1006.4 |
| 20260901200036 | 63 | 195 | 3.5 | 0.0 | 0.00 | 0.00 | 0.00 | 18 | 1006.3 |
| 20260901194525 | 63 | 184 | 4.3 | 0.0 | 0.00 | 0.00 | 0.00 | 18 | 1006.5 |
| 20260901193021 | 62 | 224 | 5.2 | 0.0 | 0.00 | 0.00 | 0.00 | 19 | 1006.6 |
| 20260901191523 | 62 | 167 | 4.3 | 0.0 | 0.00 | 0.00 | 0.00 | 19 | 1006.8 |
| 20260901190021 | 62 | 195 | 4.3 | 0.0 | 0.00 | 0.00 | 0.00 | 18 | 1007.3 |
| 20260901184513 | 61 | 217 | 3.5 | 0.0 | 0.00 | 0.00 | 0.00 | 19 | 1007.4 |
| 20260901183011 | 61 | 144 | 3.5 | 0.0 | 0.00 | 0.00 | 0.00 | 16 | 1007.4 |
| 20260901181518 | 60 | 189 | 3.5 | 0.0 | 0.00 | 0.00 | 0.00 | 15 | 1007.8 |
| 20260901180009 | 59 | 198 | 2.6 | 0.0 | 0.00 | 0.00 | 0.00 | 16 | 1007.4 |
| 20260901174508 | 59 | 203 | 4.3 | 0.0 | 0.00 | 0.00 | 0.00 | 17 | 1007.8 |
| 20260901173006 | 58 | 181 | 3.5 | 0.0 | 0.00 | 0.00 | 0.00 | 17 | 1007.4 |
| 20260901171505 | 58 | 219 | 3.5 | 0.0 | 0.00 | 0.00 | 0.00 | 19 | 1007.3 |
| 20260901170004 | 58 | 212 | 2.6 | 0.0 | 0.00 | 0.00 | 0.00 | 18 | 1007.3 |
| 20260901164503 | 58 | 130 | 3.5 | 0.0 | 0.00 | 0.00 | 0.00 | 16 | 1007.3 |
| 20260901163002 | 57 | 206 | 4.3 | 0.0 | 0.00 | 0.00 | 0.00 | 16 | 1007.0 |
| 20260901161601 | 57 | 216 | 2.6 | 0.0 | 0.00 | 0.00 | 0.00 | 16 | 1006.9 |
| 20260901160115 | 57 | 167 | 1.7 | 0.0 | 0.00 | 0.00 | 0.00 | 17 | 1007.3 |
| 20260901154558 | 56 | 210 | 2.6 | 0.0 | 0.00 | 0.00 | 0.00 | 16 | 1007.2 |
| 20260901153109 | 56 | 192 | 2.6 | 0.0 | 0.00 | 0.00 | 0.00 | 17 | 1007.1 |
| 20260901151556 | 55 | 200 | 2.6 | 0.0 | 0.00 | 0.00 | 0.00 | 17 | 1007.1 |
| 20260901150108 | 55 | 121 | 2.6 | 0.0 | 0.00 | 0.00 | 0.00 | 17 | 1007.0 |
| 20260901144555 | 55 | 202 | 2.6 | 0.0 | 0.00 | 0.00 | 0.00 | 20 | 1006.9 |
| 20260901143111 | 55 | 185 | 2.6 | 0.0 | 0.00 | 0.00 | 0.00 | 26 | 1006.9 |
| 20260901141552 | 55 | 133 | 1.7 | 0.0 | 0.00 | 0.00 | 0.00 | 27 | 1006.5 |
| 20260901140127 | 54 | 208 | 1.7 | 0.0 | 0.00 | 0.00 | 0.00 | 32 | 1006.3 |
| 20260901134546 | 54 | 182 | 1.7 | 0.0 | 0.00 | 0.00 | 0.00 | 26 | 1006.3 |
| 20260901133044 | 54 | 216 | 2.6 | 0.0 | 0.00 | 0.00 | 0.00 | 24 | 1006.1 |
| 20260901131544 | 54 | 176 | 2.6 | 0.0 | 0.00 | 0.00 | 0.00 | 24 | 1005.9 |
| 20260901130043 | 54 | 150 | 0.9 | 0.0 | 0.00 | 0.00 | 0.00 | 17 | 1005.6 |
| 20260901124540 | 53 | 137 | 0.9 | 0.0 | 0.00 | 0.00 | 0.00 | 17 | 1005.5 |
| 20260901123039 | 53 | 124 | 0.9 | 0.0 | 0.00 | 0.00 | 0.00 | 16 | 1005.5 |
| 20260901121537 | 53 | 176 | 0.9 | 0.0 | 0.00 | 0.00 | 0.00 | 17 | 1005.4 |
| 20260901120035 | 53 | 145 | 1.7 | 0.0 | 0.00 | 0.00 | 0.00 | 17 | 1004.4 |
| 20260901114535 | 53 | 185 | 0.9 | 0.0 | 0.00 | 0.00 | 0.00 | 17 | 1004.5 |